Temp
23 24 24 24 24 24 24 24 24 24 24 24 25 25 25 25 26 26 26 26 27 27 27 27 27 27 27 27 27 27 27 26 26 26 26 26 26 26 26 26 26 25 25 25 25 25 25 25 25 24 24 24 24 24 23 23 23 22 22 22 22 21 21 21 22 22 22 21 21 22 22 22 22 22 22 22 21 22 22 22 22 22 22 22 22
24 24 24 24 24 24 24 24 24 24 24 24 25 25 25 26 26 26 26 27 27 28 28 28 28 28 28 28 28 28 27 27 27 26 26 26 26 26 26 26 26 26 25 25 25 25 25 25 25 25 25 24 24 24 24 23 23 22 22 22 22 22 22 22 22 22 22 22 22 22 22 22 22 22 22 22 22 22 22 22 22 23 23 23 23
25 25 24 24 24 24 24 24 25 24 24 25 25 25 25 25 26 26 26 27 27 28 28 28 28 28 28 28 28 28 27 27 27 27 27 26 26 26 26 26 26 26 26 25 25 25 25 25 25 25 25 25 24 24 24 24 23 23 23 22 22 22 22 23 23 22 22 22 22 22 22 22 22 22 22 22 22 22 23 23 23 23 23 22 22
25 25 25 25 24 25 25 25 25 25 25 25 25 25 25 25 26 26 26 27 27 28 28 29 29 28 28 28 28 28 27 27 27 27 27 27 27 27 26 26 26 26 26 26 26 26 26 25 25 25 25 25 25 24 24 24 24 24 23 23 23 23 23 23 23 23 23 23 23 23 22 22 22 22 22 22 22 23 23 23 23 22 22 22 22
25 25 25 25 25 25 25 25 25 25 25 25 25 25 25 26 26 26 26 27 27 28 28 29 29 29 29 29 28 28 28 28 28 28 27 27 27 27 26 26 26 26 26 26 26 26 26 26 25 25 25 25 25 24 24 24 24 24 24 24 24 24 24 24 23 24 23 23 23 23 23 23 23 23 23 23 23 23 23 23 22 22 22 21 21
25 25 25 25 25 25 25 25 25 25 25 25 25 25 25 26 26 26 27 27 28 28 29 29 29 29 29 29 29 29 28 28 28 28 27 27 27 27 27 27 27 27 26 26 26 26 26 26 26 25 25 25 25 25 25 25 25 25 25 25 25 25 25 24 24 24 24 24 24 24 24 23 23 23 23 23 23 23 23 22 22 22 21 21 21
25 25 25 25 25 25 25 25 25 25 25 25 25 25 26 26 26 27 27 27 28 28 29 29 29 29 29 29 29 29 29 29 28 28 28 28 28 28 28 27 27 27 27 27 26 26 26 26 26 26 26 26 26 26 26 26 26 25 25 25 25 25 25 25 25 25 25 24 24 24 24 24 24 24 24 23 23 23 23 23 22 22 22 21 21
25 25 25 25 25 25 25 25 25 25 25 25 25 26 26 26 27 27 27 28 28 28 29 29 29 29 29 29 29 29 29 29 28 28 28 28 28 28 28 28 27 27 27 27 27 27 26 26 26 26 26 26 26 26 26 26 26 25 25 25 25 25 25 24 24 24 24 24 24 24 24 24 24 24 24 23 23 23 23 23 22 22 22 21 21
25 25 25 25 25 25 25 25 25 25 25 25 25 26 26 26 27 27 27 27 28 28 29 29 29 29 29 29 29 29 29 29 29 28 28 28 28 28 28 28 28 27 28 28 27 27 27 26 26 26 26 26 26 26 26 26 26 25 25 25 25 25 25 25 24 24 24 24 24 24 24 24 24 24 24 24 23 23 23 23 22 22 22 21 21
24 25 25 25 25 25 25 25 25 25 25 25 25 25 26 26 27 27 27 27 28 28 29 29 29 29 29 29 29 29 29 29 29 29 29 29 28 28 29 28 28 28 28 28 27 27 27 27 27 26 26 26 26 26 26 26 26 26 26 26 25 25 25 25 25 25 24 24 24 24 24 24 24 24 24 23 23 23 23 23 22 22 22 21 21
24 25 25 25 25 25 25 25 25 25 25 25 25 25 26 26 26 27 27 27 28 28 29 29 29 29 29 29 29 29 29 29 29 29 29 29 29 29 29 29 28 28 28 28 28 27 27 27 27 26 26 26 26 26 26 26 26 26 26 26 26 26 25 25 25 25 25 25 24 24 24 24 24 23 23 23 23 23 23 23 22 22 22 21 21
25 25 25 25 25 25 25 25 25 25 25 25 25 25 26 26 26 27 27 27 28 28 29 29 29 29 29 29 29 29 29 29 29 29 29 29 29 29 29 29 29 28 28 28 28 28 28 28 27 27 27 26 26 27 26 26 26 26 26 26 26 26 26 26 25 25 25 25 25 24 24 24 24 24 23 23 23 23 23 23 22 22 21 21 21
25 25 25 25 25 25 25 25 25 25 25 25 25 25 26 26 26 27 27 27 28 28 29 29 29 29 29 29 29 29 29 29 29 29 29 29 29 29 29 29 29 29 29 28 28 28 28 28 28 27 27 27 27 27 27 27 26 26 26 26 26 26 26 26 26 25 25 25 25 25 25 24 24 24 24 24 23 23 23 23 22 22 21 21 21
25 25 25 25 25 25 25 25 25 25 25 25 25 25 25 26 26 26 27 27 27 28 29 29 29 29 29 28 28 28 29 29 29 29 29 29 29 29 29 29 29 29 29 28 28 29 29 28 28 28 27 27 27 27 27 27 27 27 26 26 26 26 26 26 26 26 25 25 25 25 25 25 25 25 24 24 24 24 23 23 23 22 21 21 21
25 25 25 25 25 25 25 25 25 25 25 25 25 25 26 26 26 26 27 27 27 28 29 28 28 28 29 28 26 27 28 28 29 29 29 29 30 29 29 29 30 29 29 29 29 29 29 29 29 28 28 28 27 27 27 27 27 27 27 27 26 26 26 26 26 26 26 25 25 25 25 25 25 25 25 24 24 24 24 23 23 22 22 21 21
25 25 25 25 25 25 25 25 25 25 25 25 25 25 26 26 26 26 26 27 27 28 28 28 29 29 28 26 25 26 28 27 28 29 30 30 30 30 30 30 30 30 29 29 29 29 29 29 29 29 28 28 28 27 27 27 27 27 27 27 27 27 26 26 26 26 26 26 26 26 25 25 25 25 25 25 24 24 24 23 23 23 22 21 21
25 25 25 25 25 25 25 25 25 25 25 25 25 25 25 26 26 26 26 26 27 27 28 28 29 29 28 27 26 27 27 27 27 29 30 30 30 30 30 30 30 30 29 29 29 29 29 29 29 29 29 28 28 28 28 28 27 27 27 27 27 27 27 27 27 27 27 26 26 26 26 26 26 26 26 25 25 24 24 24 23 23 22 22 21
25 25 25 25 25 25 25 25 25 25 25 25 25 26 26 26 26 26 26 26 27 27 27 28 28 29 29 29 29 28 28 27 27 28 29 29 29 30 30 30 30 30 30 30 29 29 29 29 29 29 29 28 28 28 28 28 28 28 27 27 27 27 27 27 27 27 27 27 27 27 27 27 27 26 26 26 25 25 24 24 24 23 22 22 21
25 25 25 25 25 25 25 25 25 25 25 25 26 26 26 26 26 26 27 27 27 27 27 27 28 28 28 28 29 29 29 28 27 27 28 29 29 30 30 29 30 30 30 30 30 29 29 29 29 29 28 29 28 28 28 28 28 28 28 27 27 28 27 27 27 27 28 28 28 28 27 27 27 27 26 26 26 25 25 24 24 24 23 22 21
25 25 25 25 25 25 25 25 25 25 25 25 26 26 26 26 26 26 26 26 26 27 27 27 27 27 28 28 29 29 29 28 28 28 27 27 28 29 29 30 29 29 29 30 30 30 30 30 29 29 29 29 29 28 28 28 28 28 28 28 28 28 28 28 27 27 28 28 28 28 28 28 28 28 27 26 26 25 25 24 24 24 23 22 22
25 25 25 25 25 25 25 25 25 25 25 26 26 26 26 26 26 26 26 26 26 27 27 27 27 27 28 28 28 28 28 28 28 28 27 27 27 27 28 29 29 29 30 29 29 29 29 29 29 29 29 29 29 28 28 28 28 28 28 28 28 28 28 28 28 28 28 28 29 28 29 29 28 28 27 27 26 26 25 25 24 23 23 23 22
25 25 25 25 25 25 25 25 25 25 26 26 26 26 26 26 26 26 26 26 26 26 27 27 27 27 27 27 28 28 28 28 27 28 27 27 26 26 27 28 28 29 29 29 29 29 29 29 29 29 29 29 29 28 28 28 28 28 28 28 28 28 28 28 28 28 28 28 28 28 28 29 28 28 28 27 27 26 25 25 24 24 23 23 22
25 25 25 25 25 25 25 25 25 25 25 26 26 26 26 26 26 26 26 26 26 26 27 27 27 27 27 27 27 28 27 27 27 27 27 26 26 26 27 28 28 28 29 29 29 29 29 29 29 29 29 29 29 29 29 29 28 28 28 28 28 28 28 28 28 28 28 28 28 28 28 28 28 28 28 28 27 26 26 25 25 24 23 23 22
25 25 25 25 25 25 25 25 25 25 25 25 25 25 26 26 26 26 26 26 26 26 26 27 27 27 27 27 28 28 28 27 27 27 27 27 26 25 26 28 27 28 29 29 29 29 29 29 29 29 29 29 29 29 29 29 28 28 28 28 28 28 28 28 28 28 28 28 28 28 28 28 28 28 28 28 27 27 26 26 25 25 24 23 23
25 25 25 25 25 25 25 25 25 25 25 25 25 25 26 26 26 26 26 26 26 26 26 27 27 27 27 27 28 27 27 28 27 27 27 27 26 26 27 28 27 28 28 29 29 29 29 29 29 29 29 29 29 29 29 28 28 28 28 28 28 28 28 29 28 28 28 28 28 28 28 28 28 28 28 28 28 27 26 26 26 25 25 24 23
25 25 25 25 25 25 25 25 25 25 25 25 25 25 25 26 26 26 26 26 26 26 26 27 27 27 27 27 27 27 28 28 27 27 27 27 27 27 27 27 27 27 28 28 28 28 28 29 29 29 29 29 29 29 28 28 28 29 29 29 28 28 29 29 29 28 28 28 29 28 28 28 28 28 28 28 28 27 26 26 26 25 25 24 23
25 25 25 25 25 25 25 25 25 25 25 25 25 25 25 25 25 25 25 26 26 26 26 26 27 27 27 27 27 27 28 27 27 27 27 27 27 27 27 27 27 27 26 27 27 28 28 28 28 29 29 29 29 29 29 29 28 29 29 29 29 29 29 29 29 29 29 29 29 28 28 28 28 28 28 28 28 27 27 26 26 25 25 24 24
25 26 25 25 25 25 25 25 25 25 25 25 25 25 25 25 25 26 26 26 26 26 26 26 26 27 27 27 27 27 27 27 27 27 27 27 27 27 27 27 27 26 26 26 26 27 28 28 28 28 29 29 29 29 29 29 29 29 29 29 28 29 29 29 29 29 29 29 29 29 29 29 28 28 28 28 28 27 27 26 26 25 25 25 24
26 26 26 25 26 26 25 25 25 25 25 25 25 25 25 25 25 26 26 26 26 26 26 26 26 27 27 27 27 27 27 27 27 27 27 27 27 27 27 27 27 26 26 26 26 26 27 27 27 28 28 28 28 28 29 29 29 29 29 29 29 29 29 29 29 29 29 29 29 30 30 29 29 28 28 28 28 27 27 26 26 26 25 25 24
26 26 26 25 26 25 25 25 25 25 25 25 25 25 25 25 25 25 25 26 26 26 26 26 26 26 27 27 27 27 27 27 27 27 27 27 27 27 27 27 27 26 26 26 26 26 27 27 27 27 28 28 28 28 28 29 29 29 29 29 29 29 29 29 29 29 29 29 29 30 29 29 29 28 28 28 28 28 27 26 26 26 25 25 25
26 26 26 26 26 25 25 25 25 25 25 25 25 25 25 25 25 25 25 25 26 26 26 26 26 26 26 27 27 27 27 27 27 27 27 27 27 27 27 27 27 26 26 25 25 26 26 26 27 27 27 28 28 28 28 28 29 29 29 29 29 29 29 29 29 29 29 29 29 29 29 29 29 29 28 28 28 28 27 27 26 26 25 25 25
26 26 26 26 26 26 26 25 25 25 25 25 25 25 25 25 25 25 25 25 26 26 26 26 26 26 26 27 27 27 27 27 27 27 27 27 27 27 27 27 27 26 26 25 24 25 26 27 27 27 27 27 28 28 28 28 29 29 29 29 29 29 29 29 29 29 29 29 29 29 29 29 29 28 28 28 28 28 27 27 27 26 26 25 25
26 26 26 26 26 26 26 26 26 26 25 25 25 25 25 25 25 25 25 26 26 26 26 26 26 26 26 27 27 27 27 27 27 27 27 27 27 27 26 27 27 27 26 25 25 25 26 27 27 27 27 27 27 28 28 28 28 29 29 29 29 29 29 29 29 29 29 29 29 29 29 29 28 28 28 28 28 28 28 27 27 27 26 26 25
27 27 26 26 26 26 26 26 26 26 26 26 25 25 25 25 25 25 25 26 26 26 26 26 26 26 26 26 26 26 26 27 27 27 26 26 27 27 27 26 27 27 26 26 26 25 25 27 27 27 27 27 27 28 28 28 28 28 28 29 29 29 29 29 29 29 29 29 29 29 28 28 28 28 28 28 28 28 28 27 27 27 26 26 26
27 27 27 27 27 27 26 26 26 26 26 26 26 25 26 26 26 25 26 26 26 26 26 26 26 26 26 26 26 26 26 26 27 27 26 26 27 27 27 26 26 26 26 26 26 25 25 26 27 27 27 27 27 28 28 28 28 28 28 29 29 29 29 29 29 29 29 28 28 28 28 28 28 28 28 28 27 27 27 28 27 27 27 27 26
27 27 27 27 27 27 27 27 27 26 26 26 26 26 26 26 26 26 26 26 26 26 26 26 26 26 26 26 26 26 27 27 27 27 26 26 26 26 27 26 26 27 27 26 26 26 26 26 27 27 27 27 27 28 28 28 28 28 29 29 29 29 29 28 28 28 28 28 28 28 28 28 27 27 27 27 27 27 27 28 28 28 27 27 27
28 28 28 27 27 27 27 27 27 27 26 26 26 26 26 26 26 26 26 26 26 26 26 26 26 26 26 26 26 26 26 27 27 27 27 26 26 26 27 27 26 26 27 27 27 27 26 26 27 27 27 27 27 28 28 28 28 28 28 28 28 28 28 28 28 28 27 27 27 27 27 27 27 27 27 27 27 27 28 28 28 28 28 27 27
28 28 28 28 28 27 27 27 27 27 26 26 26 26 26 26 26 26 26 26 26 26 26 26 26 26 26 26 26 26 27 27 27 27 27 27 27 27 27 27 26 26 27 27 27 27 26 26 26 26 27 27 27 27 28 28 28 27 27 27 27 28 27 27 27 27 27 27 27 27 27 27 27 27 27 27 27 28 28 28 28 28 28 28 27
28 28 28 28 28 28 27 27 27 27 27 26 26 26 26 26 26 26 26 26 26 26 26 26 26 26 26 26 25 25 25 26 27 27 27 27 27 27 27 27 27 27 27 26 26 26 26 26 26 26 26 26 27 27 27 27 27 27 26 26 26 27 27 27 26 26 26 26 26 26 26 26 26 27 27 27 28 28 28 28 28 28 28 28 28
28 28 29 29 28 28 28 27 27 27 26 26 26 26 26 26 26 26 26 26 26 26 26 26 26 25 25 25 25 24 24 25 25 26 26 27 27 27 27 27 27 27 27 27 26 26 26 26 26 26 26 26 26 26 26 26 26 26 26 25 25 25 26 26 26 26 25 25 25 25 26 26 26 27 27 28 28 28 28 28 29 29 29 28 28
27 28 28 28 28 28 28 27 27 27 26 26 26 26 26 26 26 26 26 26 26 26 26 26 25 24 24 25 25 25 25 25 25 26 26 26 27 27 27 27 27 27 27 26 26 26 25 25 25 25 25 25 26 26 26 26 25 25 25 25 24 25 25 25 25 25 25 25 25 25 26 26 26 27 27 27 28 28 28 28 29 29 29 28 28
27 27 27 27 27 27 27 27 27 26 26 26 26 26 26 26 26 26 26 26 26 26 26 26 25 24 25 25 25 25 26 26 26 26 26 26 26 27 27 27 27 27 26 26 26 26 25 25 25 25 25 25 25 25 25 25 25 25 25 24 24 24 24 24 24 25 25 25 24 25 26 26 26 26 27 27 27 27 27 28 28 28 28 28 28
26 26 27 27 27 27 26 26 26 26 25 26 26 26 26 26 26 26 26 26 26 26 26 26 25 25 25 25 25 25 26 26 26 26 26 26 26 26 27 27 26 26 26 26 26 25 25 25 25 25 24 24 24 25 25 25 24 24 24 24 24 24 24 23 23 24 25 25 24 24 25 26 26 26 27 27 27 27 27 27 27 27 27 27 27
25 26 26 26 26 26 26 26 26 26 26 26 26 26 26 26 26 26 26 26 26 26 26 26 25 25 25 25 25 25 26 26 26 26 26 26 26 26 26 26 26 25 25 25 25 25 25 25 25 24 24 24 24 24 24 24 24 24 24 24 24 23 23 23 22 23 25 25 24 24 25 26 26 26 26 26 26 26 27 27 27 27 27 27 27
25 25 25 25 25 25 25 25 25 25 26 26 25 26 26 25 25 26 26 26 26 26 25 25 25 25 25 25 25 25 25 25 25 25 25 25 25 25 25 25 25 25 25 25 25 25 25 24 24 24 24 24 24 24 24 24 24 24 24 24 24 23 23 23 23 23 24 25 24 24 25 25 25 25 25 25 25 26 26 26 27 27 27 27 27
24 24 24 24 25 24 24 24 24 25 25 25 25 25 25 25 25 25 25 25 25 25 25 25 25 25 25 25 25 25 24 25 25 25 24 24 24 25 25 25 25 25 25 25 25 25 25 25 24 24 24 24 24 24 24 24 24 25 24 24 24 23 23 23 23 24 24 24 24 24 24 25 25 25 25 25 25 25 26 26 26 26 26 27 27
23 23 24 24 24 24 23 23 23 24 24 25 25 25 25 25 24 24 25 25 25 25 25 24 24 24 24 24 24 24 24 24 24 24 24 24 24 24 24 25 25 25 25 25 25 24 24 24 24 24 24 24 24 25 25 25 25 25 25 24 24 24 23 23 24 24 24 24 24 24 24 24 24 24 24 24 24 25 25 26 26 26 26 26 26
22 22 23 23 23 23 24 23 22 23 23 24 24 24 24 25 24 24 24 24 24 24 24 24 24 24 24 24 24 24 24 23 23 23 23 23 23 24 24 24 24 24 24 24 24 24 24 24 24 24 24 25 25 25 25 25 25 25 25 25 25 24 24 23 23 23 24 24 24 24 24 24 24 23 23 24 24 24 25 25 25 25 25 25 26
21 21 22 21 21 22 22 22 21 22 22 22 22 23 23 24 24 23 23 23 23 23 23 23 23 23 23 22 23 23 22 22 22 23 23 23 23 23 23 24 24 24 24 24 24 24 24 24 24 24 25 25 25 25 25 25 26 25 25 25 25 25 23 23 22 23 23 24 24 24 23 24 24 23 23 23 23 24 24 25 24 25 25 25 25
20 20 20 21 20 20 20 20 20 21 21 21 21 21 22 23 23 23 22 22 22 22 22 22 22 22 22 21 22 21 21 21 22 22 22 22 23 23 23 23 23 23 23 23 24 24 24 24 25 25 25 25 25 25 25 25 25 25 25 24 24 24 23 22 23 23 23 24 24 23 23 23 23 23 23 23 23 24 24 24 24 24 25 25 25
19 20 20 20 20 19 19 19 20 20 20 21 21 21 21 22 22 22 22 22 21 21 21 21 21 21 21 21 21 21 21 21 21 22 22 22 22 23 23 23 23 23 23 23 23 24 24 24 24 25 25 24 24 25 25 25 24 25 24 23 23 23 23 23 23 23 23 23 23 23 23 23 23 23 23 23 23 23 24 24 24 24 24 24 24
Height
863 863 864 864 865 865 865 866 866 867 867 867 866 866 866 865 864 864 863 863 863 864 865 865 865 865 865 865 865 866 865 866 866 866 866 865 864 864 864 864 864 864 864 864 864 864 863 863 863 863 862 862 861 861 861 860 859 859 858 857 857 856 855 854 853 852 851 850 850 849 848 847 847 845 844 843 841 840 839 838 837 836 834 833 832
863 863 864 865 865 866 866 867 867 867 867 866 866 866 866 865 864 863 863 862 863 864 865 865 865 865 865 865 865 866 865 865 866 866 866 866 865 865 865 864 865 865 865 864 864 864 863 863 862 862 862 862 861 861 860 859 858 858 857 856 856 855 854 853 852 851 850 849 848 848 847 846 846 845 843 842 841 839 838 837 836 835 833 832 831
863 864 864 865 865 866 867 867 867 867 867 867 867 867 866 865 864 864 863 862 863 864 864 865 864 865 865 865 865 865 866 866 867 866 866 866 866 866 865 865 865 865 865 865 864 864 863 863 863 862 862 862 861 860 859 858 858 857 856 856 855 854 853 852 851 850 849 848 847 847 846 845 845 844 843 842 841 839 838 836 835 834 832 831 830
864 864 865 865 866 866 867 867 867 867 867 867 867 867 866 865 865 864 863 863 863 863 864 864 864 865 865 865 865 865 866 866 866 866 867 866 866 867 866 866 866 865 865 865 864 864 864 863 863 863 862 862 861 860 859 858 858 857 856 855 854 854 853 852 851 850 849 848 847 846 845 845 844 843 843 841 840 839 837 836 835 833 832 830 828
864 865 865 866 866 866 867 867 867 867 867 867 867 867 866 865 865 864 864 863 863 863 863 864 865 865 865 866 866 866 866 866 866 867 867 867 867 867 867 866 866 866 865 865 865 864 864 864 864 863 863 862 861 860 859 858 857 856 856 855 854 853 852 851 850 849 848 847 846 845 845 844 843 843 842 841 840 839 837 836 835 833 831 829 827
865 865 866 866 866 866 867 867 867 867 867 867 867 866 866 865 865 864 864 864 863 863 864 864 865 865 865 866 866 866 867 867 867 867 867 867 867 867 867 867 866 866 866 866 865 865 865 865 864 864 863 862 861 860 860 859 858 857 856 855 854 853 852 852 851 850 849 847 846 845 844 843 843 842 841 841 840 839 837 835 834 832 830 828 826
865 866 866 867 867 867 867 867 867 867 867 867 867 866 866 865 865 865 864 864 863 863 864 864 865 865 865 866 866 866 867 867 867 867 867 867 867 867 866 867 866 866 867 866 866 865 865 865 865 864 863 862 861 861 860 859 858 858 857 856 855 854 853 852 851 850 849 848 847 845 844 843 843 842 841 840 839 838 837 835 833 831 830 827 825
865 866 866 867 867 867 868 868 868 867 867 867 867 866 866 866 865 865 865 864 864 863 864 864 864 865 866 866 866 867 867 867 867 867 867 867 867 867 867 867 867 867 867 867 866 865 865 865 865 864 863 862 862 861 860 860 859 858 857 856 855 855 854 853 852 851 850 848 847 846 845 844 843 842 841 840 839 837 836 834 832 830 828 826 824
865 866 867 867 867 868 868 868 868 868 868 867 867 867 866 866 866 866 865 865 864 864 864 865 865 865 866 866 866 867 867 867 868 867 867 867 867 867 867 867 867 867 867 867 866 866 865 865 865 864 863 863 862 861 861 860 860 859 858 857 856 855 854 853 852 851 850 849 848 846 845 844 843 842 841 839 838 837 835 833 832 830 827 825 823
866 867 867 868 868 868 868 868 868 868 868 868 867 867 867 867 866 866 866 865 865 864 865 865 865 865 866 866 866 867 867 867 867 867 867 867 867 867 867 867 867 867 867 867 866 866 866 865 865 865 864 863 862 862 861 860 859 859 858 857 856 855 854 853 852 851 850 849 848 847 845 844 843 841 840 839 838 836 835 833 831 829 827 825 822
866 867 867 868 868 868 869 868 868 868 868 868 868 868 868 867 867 866 866 865 865 865 865 865 865 866 866 866 866 867 867 867 867 867 867 867 867 867 867 867 867 867 867 867 866 866 866 865 865 865 864 863 862 861 861 860 859 858 857 856 855 855 854 853 852 851 850 849 848 847 845 844 842 841 840 839 837 836 834 832 831 828 826 824 822
866 867 867 868 868 868 869 869 869 869 869 869 869 869 868 868 868 867 867 866 865 865 865 865 866 866 866 866 867 867 867 867 867 867 867 867 867 867 867 867 867 867 867 867 866 866 865 865 864 864 863 863 862 861 860 859 859 858 857 856 855 854 853 852 852 851 850 849 848 846 845 844 842 841 839 838 837 835 834 832 830 828 826 824 822
866 867 867 868 868 869 869 869 869 869 869 869 869 869 869 869 869 868 867 867 866 866 866 866 866 867 867 867 867 867 867 867 867 867 868 868 867 867 868 867 867 867 867 866 866 866 865 865 864 863 863 862 861 861 860 859 858 858 857 856 855 854 853 852 851 850 849 848 847 846 845 843 842 840 839 837 836 834 833 831 830 828 825 823 822
866 867 867 868 868 869 869 870 870 870 870 870 870 870 870 870 869 869 868 867 867 866 866 866 866 867 866 867 868 868 867 866 867 867 867 868 867 867 867 867 867 867 867 867 866 866 865 865 864 863 863 862 861 861 860 859 859 858 857 856 855 854 853 852 851 850 849 848 847 845 844 843 841 839 838 837 835 834 832 831 829 827 825 823 821
866 866 867 868 868 869 869 870 870 870 870 870 871 870 870 870 870 870 869 868 867 867 867 867 867 867 867 869 870 870 869 867 866 867 867 866 866 867 867 867 867 867 867 866 866 866 865 864 864 863 863 862 861 861 860 859 859 858 857 856 855 854 853 851 850 849 848 847 846 844 843 842 840 839 837 836 834 833 832 830 828 827 825 823 821
866 866 868 868 868 869 869 870 870 871 871 871 871 871 871 871 871 871 870 869 868 868 868 868 867 867 868 871 871 873 874 870 866 866 866 865 865 866 867 866 866 866 866 866 866 866 865 865 864 863 863 862 862 861 860 860 858 857 857 856 855 854 853 851 850 848 847 846 845 844 842 841 839 838 836 835 834 832 831 830 828 826 825 822 820
866 867 868 868 869 869 869 870 870 871 871 871 872 871 871 871 871 871 871 870 869 868 868 868 868 867 868 870 872 876 875 870 867 867 865 865 866 866 866 866 866 866 866 866 866 866 865 864 864 863 863 862 862 861 861 860 859 858 857 856 855 854 853 851 849 848 847 846 844 843 841 840 838 837 835 834 833 831 830 829 827 826 824 822 820
867 868 868 868 869 869 869 870 870 871 871 871 872 871 871 871 871 871 871 870 870 869 868 868 868 868 868 868 870 872 871 868 870 870 867 865 866 866 866 866 866 865 866 866 865 865 865 864 864 863 863 862 861 861 861 860 859 858 856 855 854 854 853 851 849 848 846 845 844 842 841 839 838 836 835 833 832 830 829 828 827 825 824 822 820
867 868 868 868 868 869 869 869 870 871 871 871 871 871 871 871 871 871 871 871 870 869 869 869 869 869 869 869 868 868 868 868 869 871 871 868 866 866 866 866 865 865 865 865 865 865 864 864 863 863 862 862 861 861 860 859 858 857 856 855 854 853 852 851 849 848 846 845 843 842 840 838 837 835 834 832 831 829 828 827 826 824 823 822 820
867 867 868 868 868 869 869 870 870 871 871 871 871 871 871 871 872 872 871 871 871 870 870 870 870 870 869 869 869 868 868 868 868 869 871 872 869 866 866 866 865 865 865 865 865 865 865 864 863 863 862 861 861 860 860 859 858 857 856 855 854 853 852 851 849 847 846 844 843 841 840 838 836 834 833 831 830 829 827 826 825 824 822 821 820
867 867 868 868 869 869 870 870 870 871 871 871 871 871 871 871 872 872 872 872 871 871 870 870 870 870 869 869 869 869 868 868 868 867 868 872 872 868 866 865 865 865 865 865 865 865 865 864 863 863 862 861 861 860 860 859 858 857 856 855 854 853 851 850 849 847 846 844 843 841 840 838 836 834 832 831 829 828 826 825 824 823 822 821 819
866 867 867 868 868 869 870 870 871 871 872 872 872 872 872 872 872 872 872 872 872 871 871 871 870 870 870 870 869 869 869 868 868 868 867 869 871 869 866 866 865 865 864 864 864 864 864 864 863 863 862 861 861 861 860 859 858 857 856 855 854 853 851 850 848 847 845 844 843 841 840 838 836 834 832 830 829 827 826 825 823 822 821 820 819
866 866 867 868 868 869 870 870 871 871 872 872 872 872 872 872 872 872 872 872 872 871 871 871 871 871 871 870 869 869 869 869 869 869 868 868 869 869 867 866 866 865 864 864 864 864 864 863 863 862 862 861 861 860 860 859 858 857 855 854 853 852 851 850 848 847 845 844 842 841 840 838 836 834 832 830 828 827 826 824 823 822 820 820 819
866 866 866 867 868 868 869 870 870 871 871 872 872 872 872 873 872 872 872 871 871 871 871 871 871 872 871 871 870 869 869 869 869 869 869 868 869 869 867 867 866 865 864 864 864 864 863 863 863 862 862 861 861 860 859 858 857 856 855 854 853 852 851 849 848 846 845 843 842 840 839 838 836 834 832 830 828 827 825 824 822 821 820 819 818
865 865 866 866 867 868 868 869 870 870 871 871 872 872 872 873 872 872 872 871 871 871 871 871 871 871 871 871 870 870 870 869 869 869 869 869 869 868 867 867 866 865 864 864 864 863 863 862 862 862 861 861 860 859 859 858 857 855 854 853 852 852 850 849 847 846 844 843 841 840 839 838 836 834 832 830 828 826 825 823 822 821 819 818 818
864 865 866 866 867 867 868 868 869 870 870 871 871 872 872 872 872 872 872 872 872 871 871 871 871 871 871 871 871 870 870 870 869 869 869 869 869 868 868 867 866 865 865 864 864 863 863 862 862 862 861 860 860 859 858 857 856 854 853 852 852 851 850 848 846 845 843 842 840 839 838 837 836 834 832 830 828 827 825 823 822 820 819 818 817
863 864 865 866 866 867 867 868 868 869 869 870 870 871 871 872 872 872 872 872 872 872 872 871 871 871 871 871 870 870 870 870 869 869 869 868 868 868 868 868 868 867 865 864 864 864 863 862 862 861 860 859 859 858 857 856 855 854 853 852 851 851 849 847 845 844 842 841 839 838 837 835 835 834 832 830 828 827 825 823 822 820 819 818 817
863 864 864 865 866 867 867 868 868 868 869 869 870 870 871 871 871 871 872 872 872 872 872 872 872 871 871 871 870 870 870 869 869 869 868 868 868 868 868 868 870 870 868 866 864 863 863 862 861 860 860 859 858 857 856 855 854 853 852 852 851 850 849 846 844 843 842 840 838 837 835 834 834 833 832 830 828 827 825 823 822 820 819 817 817
863 863 864 865 866 866 867 867 868 868 869 869 870 870 870 871 871 871 871 871 872 872 872 872 871 871 871 871 870 870 870 869 869 869 868 868 868 868 868 867 868 869 870 870 867 863 862 862 861 860 859 859 858 857 856 855 854 853 852 851 850 849 848 846 844 842 841 839 838 836 835 834 833 832 831 830 828 827 825 823 822 820 819 817 817
862 863 864 864 865 866 866 867 868 868 869 869 870 870 870 870 870 871 871 871 871 871 871 871 871 871 871 870 870 870 870 869 869 868 868 868 868 868 868 868 867 867 868 870 868 864 862 862 861 860 859 858 858 857 856 855 854 853 852 851 850 848 847 845 843 842 840 839 838 836 835 833 832 831 830 829 828 826 825 823 822 820 819 818 816
862 863 863 864 864 865 866 866 867 868 868 869 869 870 870 870 870 870 870 870 871 871 871 871 870 870 870 870 870 870 870 869 869 869 868 868 868 868 868 867 867 867 866 868 868 865 862 862 861 860 859 858 857 856 855 854 853 852 851 850 849 848 846 844 843 841 840 839 837 836 834 833 832 830 829 828 827 826 825 823 822 820 819 818 816
861 862 862 863 863 864 865 866 866 866 867 868 869 869 869 869 870 870 870 870 870 870 870 870 870 870 870 869 869 869 869 869 869 869 868 868 868 868 868 867 867 867 866 867 867 864 862 862 861 860 859 858 857 856 855 853 852 851 850 849 848 847 845 844 842 841 840 839 837 835 834 833 831 830 828 828 827 825 824 823 822 821 819 818 817
860 861 861 862 862 863 864 865 865 865 866 867 867 868 868 869 869 869 869 869 870 870 870 870 869 869 869 869 869 869 869 869 868 868 868 868 868 867 867 867 866 866 866 866 866 863 861 861 860 859 858 857 856 855 854 852 851 850 849 848 847 846 845 843 842 841 840 839 837 835 834 832 831 829 828 827 826 824 823 822 821 820 819 818 817
858 859 860 861 861 862 863 863 864 865 865 866 866 867 867 868 868 868 868 868 869 869 869 869 869 869 869 868 868 868 868 868 868 868 868 868 868 867 866 866 866 866 866 865 865 864 861 860 860 859 858 857 855 854 853 852 851 849 848 847 846 845 844 843 841 840 839 838 837 835 833 832 830 829 827 826 825 823 822 821 820 819 819 818 816
857 858 859 859 860 860 861 862 863 863 864 865 865 866 866 867 867 867 867 867 867 867 867 868 868 868 868 868 868 867 867 867 867 867 868 868 868 867 866 866 866 866 866 865 864 864 862 860 860 859 858 856 855 854 852 851 850 848 847 847 845 844 843 842 840 839 839 838 836 834 833 831 829 828 826 825 823 822 821 820 819 818 818 817 816
856 856 857 858 859 859 860 861 861 862 863 863 864 865 865 866 866 866 866 866 866 866 866 866 866 867 866 866 867 866 866 867 866 866 867 867 867 867 866 866 866 866 865 865 864 863 862 861 859 859 857 856 855 853 852 850 849 848 847 846 845 844 843 841 840 839 838 837 835 834 832 830 829 827 825 823 822 821 820 819 818 817 817 816 816
855 855 856 857 858 858 859 860 860 861 862 862 863 864 864 864 864 865 865 865 865 865 865 865 865 865 865 865 866 866 866 865 865 865 866 866 866 866 865 865 865 864 864 864 863 863 862 861 859 858 857 856 854 853 851 850 848 847 846 845 844 843 842 841 840 839 837 836 834 832 831 830 828 826 824 822 821 820 819 818 817 816 816 815 815
853 853 854 855 855 856 857 858 859 860 860 861 862 862 863 863 863 864 863 863 864 863 864 864 864 864 864 864 864 864 864 864 864 864 864 865 865 864 864 864 864 863 863 863 862 862 861 860 859 858 856 856 854 852 851 850 848 847 846 844 843 842 841 839 838 837 836 834 833 831 830 828 827 825 823 821 820 819 818 817 816 815 814 814 814
850 851 852 852 853 854 855 855 856 858 858 859 860 861 861 862 862 862 862 862 862 862 862 862 862 862 862 862 863 863 864 863 863 863 863 863 863 863 863 863 863 862 862 862 861 861 860 859 858 857 856 855 854 853 851 850 849 847 846 844 842 841 840 838 837 836 834 833 832 830 829 827 825 823 822 820 819 818 817 816 815 813 813 813 813
848 849 849 850 851 851 852 853 854 855 856 857 858 859 859 860 860 861 860 861 861 861 861 861 861 861 862 862 862 862 863 863 862 862 862 862 862 862 861 861 861 861 861 860 860 860 859 859 858 857 856 855 854 853 851 850 848 847 846 845 843 841 839 837 836 835 833 832 830 829 827 826 824 822 821 819 818 817 816 815 814 813 812 812 812
846 847 847 848 849 849 850 851 852 853 854 855 856 857 857 858 858 859 859 859 859 859 860 860 859 860 862 862 861 860 861 862 862 861 860 861 861 860 860 860 859 859 859 859 858 858 858 857 857 856 855 854 853 852 851 850 849 848 847 846 844 842 840 837 834 833 832 831 829 828 826 825 824 822 821 819 818 817 816 814 813 813 812 812 812
845 845 846 846 847 848 849 850 851 852 852 853 853 854 855 855 856 857 857 858 858 858 859 859 858 858 860 861 860 859 859 860 860 860 859 860 859 859 859 858 858 858 858 858 857 857 857 856 855 855 854 853 853 852 851 850 849 847 846 845 843 841 839 836 833 831 831 830 829 827 825 824 823 822 821 820 818 817 816 814 813 813 813 812 811
844 844 845 845 845 846 847 848 849 850 851 851 851 852 852 853 853 854 855 856 856 857 857 857 857 858 859 859 859 859 858 857 858 858 858 858 858 858 858 857 857 857 857 857 856 856 855 855 854 854 853 852 852 851 850 849 848 846 845 845 843 841 840 837 834 831 829 829 828 826 825 824 823 822 820 819 818 817 816 815 814 813 812 811 811
843 843 843 843 843 844 845 846 847 848 849 849 849 850 850 850 851 852 853 854 854 855 855 855 856 857 858 858 858 857 857 856 856 856 856 856 856 856 856 856 856 856 856 856 855 855 854 853 853 852 852 851 850 850 849 847 846 845 844 843 842 841 840 838 837 833 830 829 829 826 824 823 822 822 820 819 818 817 816 814 813 812 811 810 809
841 841 842 842 842 842 843 843 844 845 846 847 847 848 849 849 850 850 851 852 852 852 853 853 854 855 856 856 856 856 856 855 855 854 854 855 855 855 855 855 855 855 855 855 854 854 853 852 851 851 851 850 849 848 848 847 845 844 843 842 841 840 839 838 836 834 831 830 829 827 825 824 823 822 820 819 818 817 815 814 813 812 810 809 808
839 839 840 841 840 841 841 842 843 843 844 845 846 846 847 848 849 849 850 850 850 850 851 851 852 853 853 854 854 854 854 853 853 853 853 853 854 854 854 853 854 854 854 853 853 853 852 851 850 850 850 850 849 848 847 846 844 843 841 840 839 839 838 837 835 834 832 831 829 827 825 824 823 822 820 819 817 816 814 813 812 811 810 809 808
837 837 838 839 838 839 840 841 842 842 843 843 844 845 845 846 847 848 848 848 848 848 849 850 850 851 851 851 851 852 851 851 851 852 852 852 853 853 852 852 852 852 852 852 852 852 851 850 850 849 849 849 848 846 845 844 843 842 840 839 838 838 837 836 834 833 832 831 829 827 825 824 823 822 820 818 817 815 813 813 812 811 810 809 808
836 835 835 836 836 837 839 840 841 841 842 842 843 843 843 844 846 847 847 846 846 847 848 848 849 849 849 849 849 849 850 850 851 851 851 851 851 851 851 851 851 851 851 851 851 850 850 849 849 849 848 847 846 845 844 843 841 840 839 838 837 837 836 835 834 833 831 830 829 828 826 824 823 821 819 818 816 814 813 813 812 811 810 809 808
834 834 834 835 836 837 838 840 840 841 842 842 842 842 842 842 843 845 846 845 845 845 846 847 847 848 848 848 848 848 849 849 850 850 850 850 850 850 850 849 849 850 850 850 849 849 849 848 848 848 847 846 845 844 842 841 840 838 837 836 835 836 835 834 833 832 831 830 829 828 826 824 822 821 819 817 816 815 813 813 812 811 810 808 807
833 833 833 834 835 836 837 838 839 839 840 840 841 841 841 841 841 842 844 844 844 844 845 845 846 847 848 848 848 848 849 849 850 849 849 850 850 849 849 848 848 848 848 848 848 847 847 847 846 846 845 844 843 842 841 840 838 836 835 834 835 835 835 834 833 832 831 830 829 828 826 824 822 820 818 816 815 814 814 813 812 811 810 808 807
832 832 832 832 833 834 834 835 836 836 837 837 839 840 839 840 840 840 842 843 843 843 844 844 845 846 847 847 847 848 848 849 849 849 849 849 849 848 847 847 847 846 846 846 846 846 846 845 844 844 843 843 842 841 840 840 838 836 835 835 835 835 835 834 832 831 830 829 829 827 826 824 822 821 819 816 814 813 812 812 812 810 810 808 807
Wind_Speed
12 12 10 9 8 7 5 5 4 2 3 4 5 4 3 3 2 1 2 1 4 7 8 11 10 10 12 12 11 9 7 7 7 7 10 11 13 13 12 12 11 10 10 10 10 10 9 8 7 6 5 4 4 4 5 6 7 7 8 9 9 10 11 12 12 13 13 13 13 13 13 13 14 13 14 15 15 16 16 16 16 17 17 17 17
11 11 10 8 8 7 6 6 5 5 5 5 5 5 4 4 3 2 3 3 5 6 7 11 10 9 11 11 10 9 9 8 7 7 8 9 11 13 13 12 11 10 9 9 9 8 8 7 7 6 5 5 5 5 6 7 8 8 8 8 8 8 9 10 10 10 10 11 11 11 12 12 12 12 13 14 14 14 14 15 15 15 15 15 16
10 10 10 8 8 8 8 9 9 7 7 7 5 4 4 3 2 2 3 3 3 2 2 9 10 9 11 10 7 7 10 8 6 7 8 7 8 10 11 11 11 10 8 7 7 6 6 6 7 7 7 6 6 6 7 7 7 7 7 6 6 6 6 7 7 7 7 8 9 9 9 9 9 10 11 12 12 13 14 14 14 14 15 15 17
10 9 9 9 8 9 10 9 9 7 7 7 6 4 3 2 1 1 2 3 2 3 1 8 11 11 12 8 4 6 11 10 7 7 8 7 7 7 7 8 8 7 7 7 7 6 6 6 6 7 7 7 7 7 7 7 7 7 7 7 7 7 7 7 7 8 7 7 7 8 8 8 9 10 10 11 11 12 13 13 14 15 16 17 19
10 10 9 10 10 10 10 8 8 6 6 7 6 5 3 1 1 1 2 4 4 4 4 8 9 11 11 7 5 7 11 10 7 6 6 6 5 5 4 4 5 5 5 6 7 8 8 8 7 6 6 8 8 9 9 9 9 9 9 10 10 10 10 10 10 10 9 9 9 9 9 9 9 10 10 11 11 11 12 13 14 15 17 18 20
11 11 10 10 11 10 9 8 7 6 6 6 6 7 6 3 2 1 3 5 5 5 6 8 9 12 9 6 5 6 8 9 6 5 6 6 5 5 4 3 4 5 5 5 6 8 9 9 9 7 7 9 10 10 11 11 11 11 11 11 11 12 12 12 12 12 11 11 10 10 10 10 10 10 10 10 10 11 12 14 15 16 18 19 21
11 10 9 9 10 9 8 8 7 6 6 7 7 8 8 6 4 3 4 6 6 6 6 7 10 11 7 5 5 6 7 8 8 8 7 7 5 5 4 3 3 4 5 5 5 7 7 9 9 9 10 10 11 11 11 11 11 11 11 12 11 12 12 12 12 12 12 11 11 10 10 9 9 9 9 9 10 12 13 16 17 18 19 20 22
10 10 9 9 9 9 8 7 7 6 6 6 7 8 8 7 6 6 7 8 8 6 4 8 10 10 7 8 9 8 7 8 9 10 6 5 3 3 4 2 2 3 4 4 5 6 6 7 7 9 10 11 11 10 10 10 10 10 10 11 11 11 11 11 11 11 11 11 11 10 10 9 8 8 9 10 11 13 14 16 18 19 20 21 23
8 9 9 9 9 9 7 6 5 6 7 7 8 7 7 6 6 7 8 10 10 7 4 8 9 6 5 8 9 10 10 9 8 7 5 2 1 0 3 3 1 1 3 4 5 6 5 5 5 7 9 10 10 10 9 9 9 10 10 10 11 11 11 11 11 11 11 11 11 11 10 10 9 10 11 12 13 14 15 16 18 20 21 21 23
8 8 10 10 9 8 6 5 5 5 6 8 8 7 6 5 5 6 7 9 8 7 5 6 5 4 7 9 8 9 10 7 6 6 7 6 3 2 4 6 4 3 3 4 6 7 6 6 5 5 6 7 9 9 9 9 8 10 11 11 11 11 11 11 11 12 12 12 11 11 11 11 11 11 12 13 14 15 16 17 18 20 21 21 22
9 9 11 12 9 8 5 5 5 5 5 6 8 8 6 5 6 6 8 9 6 4 5 3 5 8 10 10 8 7 6 4 3 4 5 6 3 3 3 6 5 4 3 3 5 6 5 5 5 5 4 4 7 7 8 8 7 9 10 11 12 11 11 11 11 12 12 12 12 12 11 11 12 13 13 14 15 16 16 17 18 19 21 21 22
10 9 11 11 9 8 5 5 6 6 6 6 7 8 6 5 6 8 9 10 7 3 3 4 7 10 10 8 7 5 4 2 2 5 5 3 3 4 4 6 6 4 5 4 4 4 4 5 6 6 5 3 5 6 7 8 7 8 10 10 11 12 12 12 12 12 12 13 13 13 12 12 13 13 14 15 15 16 17 17 18 19 20 20 21
9 9 10 9 9 8 4 4 5 6 6 6 6 6 5 5 7 8 10 13 11 6 3 4 7 9 8 7 6 5 2 2 1 3 4 3 2 6 8 7 5 5 7 6 3 2 5 6 6 7 6 4 5 6 7 8 8 9 10 11 12 13 12 12 13 13 13 14 14 14 14 14 14 14 14 15 16 16 16 17 18 18 20 20 20
8 9 10 9 7 7 5 3 4 5 5 4 4 3 4 6 7 8 10 12 10 8 6 5 5 6 7 5 4 4 1 2 1 1 1 3 6 7 9 6 2 3 5 5 4 1 5 6 7 6 6 6 6 7 8 9 9 10 11 12 13 14 14 14 14 15 15 15 15 15 15 15 15 16 15 15 16 16 16 17 18 18 19 20 19
8 8 8 7 6 6 6 5 4 3 2 2 3 2 3 5 5 7 10 10 7 7 8 7 7 9 8 4 2 3 2 3 1 1 5 2 8 8 8 5 3 2 2 3 3 1 4 4 7 6 6 6 6 7 8 9 10 10 12 13 13 14 15 15 14 15 15 16 16 16 15 16 16 16 16 16 16 16 16 17 17 17 18 19 19
9 8 6 5 6 6 5 5 5 3 3 3 3 2 3 4 5 6 9 10 9 6 6 6 5 7 5 2 0 2 1 4 4 3 8 7 6 9 7 4 2 1 2 2 3 1 3 3 6 7 6 7 8 7 7 8 9 9 11 12 13 14 15 15 15 14 15 16 16 15 15 16 16 17 17 17 17 17 17 17 17 17 17 18 18
9 8 5 5 6 6 5 6 5 4 4 3 2 2 2 3 6 7 7 9 10 8 6 4 3 4 5 4 1 1 2 4 4 3 5 8 4 5 5 2 1 1 2 1 4 4 3 3 5 7 6 7 9 9 8 9 9 10 11 11 13 15 15 15 16 15 15 15 15 15 15 16 17 17 18 18 18 18 17 18 17 16 16 17 18
8 8 6 6 6 6 5 5 5 4 3 2 3 2 2 3 5 6 5 7 8 8 9 5 2 3 4 3 1 1 3 1 1 2 4 6 4 2 3 2 2 3 1 2 6 5 3 5 6 6 6 6 9 10 9 11 12 13 13 12 13 15 15 15 17 17 17 15 15 15 16 18 18 18 19 19 19 19 18 18 17 16 15 15 17
9 8 7 7 7 6 5 5 4 4 3 2 2 2 3 4 4 4 3 5 6 7 9 8 4 3 1 1 2 3 4 2 2 1 2 3 3 1 1 4 3 4 4 2 3 3 3 6 6 6 6 7 9 9 10 12 13 14 12 12 13 14 15 16 17 18 19 17 16 17 17 18 19 19 19 19 19 19 19 19 18 16 14 14 15
9 7 6 7 7 6 5 5 4 4 3 1 1 2 4 4 2 2 3 4 6 6 6 8 8 7 5 3 2 2 3 1 2 3 2 1 4 3 3 6 5 4 6 5 2 1 4 7 6 7 9 9 9 9 9 11 14 14 12 12 13 14 16 16 17 19 19 18 17 17 18 18 19 20 20 19 19 19 19 19 18 16 15 13 13
10 8 6 7 7 6 6 5 4 4 3 1 2 4 5 4 2 3 4 2 2 3 4 7 7 7 8 6 5 3 1 3 2 3 4 2 2 3 4 7 7 5 6 6 5 2 5 8 8 9 10 10 10 8 9 11 14 14 13 14 14 14 18 16 16 19 19 18 17 17 18 19 20 21 20 20 19 18 18 18 17 16 15 13 12
11 9 7 7 6 6 7 5 3 3 3 2 3 4 4 3 2 3 3 1 0 1 2 3 4 6 7 6 5 5 4 5 4 3 4 4 0 4 5 5 5 7 6 7 7 5 5 8 9 10 10 7 6 7 10 14 16 14 14 15 14 15 18 16 16 19 19 19 18 18 18 19 21 22 21 20 18 17 17 17 17 15 15 13 10
11 10 9 9 7 5 7 6 4 4 3 3 3 3 5 5 2 3 3 2 2 1 0 0 3 5 5 4 4 4 3 3 3 2 3 3 2 5 7 5 5 8 6 6 8 6 6 8 8 10 9 7 6 9 13 16 16 15 13 15 16 16 16 16 17 20 19 19 20 20 19 19 21 23 22 21 18 16 16 16 16 14 14 12 9
11 10 8 9 8 6 7 6 6 5 4 3 3 3 5 6 5 4 3 2 2 1 1 1 2 4 4 3 4 4 2 2 2 1 0 2 2 4 7 5 5 7 8 6 6 8 9 9 8 10 11 11 11 13 15 16 15 14 13 15 16 15 16 18 19 20 20 20 22 21 21 20 21 22 23 22 19 17 16 16 16 15 13 11 9
12 10 8 9 9 8 8 7 6 6 6 5 4 3 3 6 6 4 3 3 2 1 2 1 1 3 4 4 4 3 2 2 2 2 3 1 2 3 4 3 3 6 8 6 6 9 9 8 8 10 12 13 13 13 13 14 14 13 13 16 16 13 16 20 19 20 20 21 24 24 23 22 21 21 22 22 20 18 17 17 17 16 13 11 9
12 10 9 10 10 8 8 8 7 7 7 6 5 4 4 5 4 3 2 3 2 2 3 2 3 5 4 3 2 1 1 2 2 2 3 4 4 3 3 4 5 6 6 6 7 8 7 7 9 10 12 14 12 10 11 12 14 13 13 15 15 13 17 21 20 21 22 24 27 27 26 25 22 20 20 21 20 19 19 19 18 17 14 11 9
11 11 10 10 10 8 8 8 6 6 7 7 6 5 5 5 4 3 3 3 3 4 4 3 5 5 3 3 3 3 3 3 2 2 3 4 3 2 2 3 3 5 5 5 7 7 8 10 10 10 13 13 9 9 12 13 14 14 15 17 14 13 18 22 22 23 26 28 29 28 27 25 22 19 18 19 19 18 19 20 19 18 15 12 9
10 10 10 11 10 8 8 7 6 6 6 6 6 6 5 6 6 6 5 4 4 5 5 5 5 5 4 4 5 5 4 2 1 1 3 4 3 3 3 2 2 2 3 4 4 5 8 11 10 10 13 12 10 11 14 15 13 13 18 18 13 14 18 20 22 24 26 27 28 27 23 20 19 18 17 18 18 18 18 20 20 18 16 13 10
10 10 10 10 9 8 9 8 6 6 6 6 8 7 6 6 6 5 5 4 4 6 6 6 5 5 6 5 5 6 5 3 3 3 3 4 5 4 5 5 4 2 1 2 3 4 7 11 10 10 12 13 14 15 15 15 14 14 17 16 12 16 19 19 22 24 24 26 27 24 19 16 16 16 17 17 17 17 18 19 20 19 17 13 10
11 10 9 10 10 9 10 9 7 7 7 7 8 8 7 7 6 6 5 5 5 6 6 7 7 6 6 6 6 6 6 4 5 6 4 5 5 5 6 6 6 5 4 3 3 4 7 11 12 12 14 15 16 16 15 15 15 14 15 15 15 19 19 20 23 23 22 24 24 21 18 15 15 16 18 18 18 18 17 18 19 19 17 15 11
12 11 11 11 11 10 10 10 8 8 8 8 9 9 8 7 7 7 6 6 7 7 6 7 6 6 7 6 6 5 5 5 6 7 7 7 8 8 7 6 7 8 7 4 2 5 9 13 15 14 14 16 16 16 15 14 14 14 14 16 18 19 18 21 22 21 21 22 22 23 21 17 17 19 19 20 19 18 17 17 18 18 17 16 12
13 12 12 12 12 11 11 10 9 9 10 10 9 10 10 9 8 7 7 7 8 8 7 7 7 8 8 7 6 5 6 7 6 7 8 9 9 9 8 8 7 9 10 7 6 9 13 13 14 14 14 15 16 16 16 14 13 13 15 17 18 18 18 20 19 17 20 22 22 22 21 18 20 23 24 23 21 19 18 18 18 17 17 16 13
13 13 12 12 12 12 11 11 10 9 10 11 9 9 10 9 8 8 7 7 9 9 8 8 8 8 8 7 6 7 8 8 7 7 8 9 9 9 9 10 10 10 10 10 10 11 14 13 12 13 14 15 16 15 15 14 12 13 15 17 18 18 18 19 18 16 18 21 21 21 21 21 24 27 26 22 19 18 19 18 18 17 16 16 14
14 13 12 12 12 12 12 11 12 11 10 11 11 10 11 10 9 8 8 8 9 9 8 8 8 8 8 7 7 8 9 8 9 9 8 8 8 8 8 11 12 11 10 12 12 11 13 15 14 14 15 16 16 15 15 15 15 15 16 18 19 18 18 20 20 17 16 18 20 21 22 24 25 24 22 20 20 20 20 19 18 16 14 15 14
14 13 13 13 12 13 12 12 13 12 10 10 11 11 11 10 9 8 9 9 9 9 9 9 9 9 9 9 9 9 8 8 9 9 8 8 8 7 9 10 11 11 11 13 12 11 13 15 14 15 17 18 18 17 17 17 16 16 17 18 20 20 20 22 21 18 15 18 20 22 24 24 22 21 22 24 23 21 19 18 17 15 13 12 13
14 15 14 13 12 13 13 12 13 12 11 10 11 11 10 10 9 9 10 10 9 10 10 10 10 9 10 11 10 10 10 10 9 8 8 8 6 6 8 9 9 10 10 11 10 11 13 14 16 16 17 18 18 18 18 17 16 17 19 20 21 21 21 20 19 17 16 19 21 22 21 20 20 21 24 25 22 19 17 16 17 15 12 10 11
13 15 15 13 12 13 13 12 12 11 10 10 10 11 10 10 11 10 10 10 10 10 10 10 10 10 10 11 11 10 10 10 9 8 8 9 7 5 6 8 9 10 9 7 8 10 12 15 16 16 16 17 17 18 18 20 21 21 20 18 18 18 19 19 20 20 20 21 22 21 19 18 21 24 24 21 19 17 16 16 17 16 12 10 9
13 14 15 16 14 14 13 13 13 12 12 11 10 10 10 11 11 11 10 10 11 11 11 10 10 10 11 12 12 11 11 10 9 9 9 9 8 7 7 7 7 6 5 5 7 9 11 13 14 15 16 16 17 18 19 20 21 18 17 18 18 19 22 24 25 26 24 22 22 20 19 21 24 23 20 18 17 15 15 17 18 16 12 10 8
16 15 14 15 16 15 15 15 15 14 13 12 12 12 11 11 11 11 11 11 12 11 11 11 11 12 12 11 12 13 12 12 11 9 9 9 9 8 6 5 4 3 4 6 8 9 11 13 14 15 16 16 17 18 18 18 15 14 18 22 23 25 26 27 28 28 26 24 23 22 23 25 24 21 20 19 16 14 16 18 18 14 11 9 7
11 13 12 12 14 17 18 16 15 14 13 12 12 12 12 12 12 11 11 11 11 11 11 12 11 9 9 9 9 10 13 14 13 10 9 9 9 8 7 6 6 6 8 9 10 11 12 14 15 15 15 16 16 16 17 17 15 17 20 22 23 25 27 29 30 28 25 23 24 25 26 25 22 20 21 20 18 16 17 19 16 10 7 7 7
4 6 7 6 8 14 18 17 15 13 13 14 13 12 13 13 13 13 12 10 10 10 10 10 8 6 7 9 8 8 10 12 11 10 11 12 12 11 11 10 9 10 11 11 10 10 11 12 13 14 14 15 16 16 16 15 15 18 21 21 21 23 26 30 31 28 24 22 24 26 25 23 21 21 21 21 22 20 17 18 16 11 9 8 7
5 4 5 4 4 6 9 11 12 12 13 13 13 12 13 15 15 15 13 11 9 9 8 8 7 5 6 8 7 7 9 11 10 11 12 11 11 11 11 10 10 10 11 11 10 10 11 12 13 14 14 15 16 16 15 15 17 19 20 19 19 22 25 26 29 30 25 23 26 28 24 21 21 21 20 20 22 21 19 19 16 12 12 11 10
10 8 6 4 4 3 3 6 9 12 12 12 12 11 12 15 17 16 14 12 9 7 7 6 4 2 4 7 7 7 9 10 10 11 10 9 9 9 8 7 7 7 8 9 11 11 12 13 15 14 14 15 16 16 16 17 18 18 18 17 18 21 21 19 21 25 25 25 28 30 26 21 19 19 19 19 21 21 21 20 18 17 18 17 15
10 10 9 7 7 5 3 3 5 9 11 11 12 11 10 13 17 17 14 12 8 5 4 4 3 2 3 4 7 8 9 9 9 9 10 10 9 8 7 6 6 6 7 8 9 11 11 13 15 15 15 15 15 15 16 17 17 18 19 19 19 19 19 17 17 21 24 26 27 27 24 20 19 18 19 19 20 20 20 20 20 20 19 18 16
10 11 10 9 9 8 6 5 6 7 9 9 10 10 8 9 12 14 13 11 7 5 4 4 5 5 4 4 5 6 7 8 8 7 8 8 8 9 8 8 7 6 6 8 8 9 10 12 13 13 12 12 13 13 13 14 18 20 21 21 20 19 19 18 19 22 23 23 22 21 19 18 19 19 19 20 21 22 21 19 18 18 17 15 13
12 13 12 12 12 10 7 7 8 9 10 9 9 9 8 7 8 10 11 9 8 7 7 7 7 7 7 6 6 6 6 8 8 7 7 7 7 8 7 7 6 5 6 7 7 7 9 9 10 10 9 10 12 14 15 17 19 20 20 21 20 20 19 19 20 21 20 19 20 18 15 17 21 21 22 24 24 23 22 18 17 18 17 16 15
13 13 14 16 16 13 10 9 10 11 11 12 11 10 9 7 5 6 7 8 8 8 8 8 8 9 9 9 8 7 7 8 8 8 7 7 6 5 5 5 5 5 6 7 7 7 8 7 7 8 9 11 13 16 17 18 17 17 16 18 19 19 18 18 18 18 18 18 18 15 14 18 22 22 24 25 25 23 20 16 17 19 17 17 17
14 15 16 17 18 18 18 18 15 13 12 13 13 12 11 10 7 6 6 7 7 7 7 6 7 7 8 7 7 8 7 7 7 7 6 6 5 5 5 5 5 5 5 5 5 5 4 4 5 8 10 12 14 14 15 15 15 15 16 17 18 17 15 15 15 16 18 17 14 14 18 21 22 23 24 25 24 21 18 17 18 18 17 17 17
14 16 16 15 15 15 18 19 17 15 14 12 11 12 12 11 9 7 7 6 5 5 5 4 4 5 5 4 5 6 5 5 5 6 5 5 6 6 6 6 6 6 6 4 3 2 2 4 6 9 11 12 11 11 12 14 16 18 19 19 17 14 13 12 12 14 17 14 11 15 18 19 22 25 24 23 23 18 15 18 21 20 18 17 16
10 12 12 13 13 12 14 15 15 15 14 11 9 9 9 10 9 8 7 6 5 4 3 3 3 4 3 3 3 3 3 3 4 4 4 5 6 6 7 7 6 5 5 5 5 5 6 7 8 10 10 9 9 10 12 14 15 14 11 10 10 11 12 12 12 14 13 10 11 16 17 17 22 25 24 23 20 14 14 20 25 24 19 18 18
4 6 8 10 11 11 13 15 15 14 13 11 8 7 6 7 8 9 8 6 6 6 4 3 3 3 2 3 3 3 3 3 4 4 5 5 6 6 6 5 4 4 5 6 7 8 9 9 10 11 9 8 9 11 12 13 12 10 11 12 11 10 12 13 15 14 9 7 13 18 18 18 21 24 24 19 12 11 16 22 26 24 20 19 22
Wind_Direction
142 137 138 148 151 158 162 146 144 112 115 120 91 94 125 120 125 111 357 318 185 165 156 158 147 135 131 128 124 127 151 153 137 100 68 69 79 84 87 86 88 91 95 95 92 89 82 75 69 63 53 39 20 1 345 334 325 314 311 313 315 313 311 310 308 307 308 309 310 310 309 309 311 314 315 314 316 319 323 325 325 325 323 321 320
143 143 145 153 152 150 140 126 124 112 120 121 90 82 84 87 81 60 47 64 146 163 172 176 168 150 141 137 124 124 150 146 124 103 76 70 77 84 87 83 84 85 91 92 87 84 75 70 63 55 43 29 15 2 351 345 335 322 320 321 321 318 315 315 312 311 311 310 311 311 311 312 317 321 322 324 327 329 331 332 333 336 336 337 338
137 137 138 135 133 131 117 114 119 113 118 121 104 93 79 65 47 48 61 64 121 142 183 174 166 160 155 145 120 127 155 154 128 105 80 77 79 82 88 87 82 76 81 85 84 82 70 65 58 53 45 32 25 16 7 0 352 343 345 347 347 343 338 339 336 331 324 319 317 316 317 319 325 332 332 333 334 335 340 344 349 351 350 351 350
130 129 136 127 121 122 116 114 117 115 119 119 108 109 105 84 28 359 15 354 336 360 21 164 154 146 145 139 109 129 156 162 139 105 84 90 84 72 81 82 79 72 71 75 79 78 65 59 53 49 48 42 35 28 23 17 13 12 18 24 19 15 16 12 3 356 349 343 339 338 341 341 340 340 338 339 342 346 351 355 357 353 351 351 349
139 135 137 130 124 120 117 113 112 117 120 113 97 93 104 126 120 339 358 349 345 27 98 140 143 144 132 112 112 129 152 158 129 101 95 98 77 56 63 61 66 64 63 72 75 72 64 56 50 48 51 50 44 36 33 31 31 32 32 33 29 27 27 21 13 8 5 3 2 2 2 357 352 348 347 350 353 355 355 353 352 350 349 349 347
139 140 137 131 126 119 120 115 108 114 114 110 93 82 81 79 77 25 16 13 17 61 109 108 110 138 133 106 124 120 143 154 129 117 108 94 79 64 69 59 60 66 63 70 74 71 64 55 49 52 56 54 48 41 39 41 42 42 41 40 37 34 31 26 21 17 14 12 10 9 6 1 357 355 355 357 356 353 350 347 346 347 347 348 348
134 137 137 134 131 124 121 116 107 101 97 95 86 82 79 74 78 51 27 25 28 58 118 121 106 123 123 108 120 103 129 145 129 131 113 89 94 74 65 69 68 67 54 52 68 69 62 56 51 55 59 54 48 46 45 46 48 49 47 45 41 38 34 30 25 21 17 13 10 8 5 3 1 359 358 354 350 346 345 343 341 343 346 348 349
135 134 134 132 128 121 113 108 99 88 85 82 76 77 76 77 75 46 33 34 26 31 111 139 122 123 124 108 104 91 112 136 128 133 120 85 96 65 50 57 52 51 52 54 70 71 61 55 52 57 62 55 47 46 47 45 45 46 46 43 38 36 32 26 24 21 17 13 8 6 3 2 359 356 351 345 342 341 340 340 338 341 345 348 350
134 136 140 132 122 116 109 101 93 83 85 77 67 64 66 77 70 47 30 28 29 35 92 143 135 136 148 119 109 100 102 123 132 135 135 135 205 151 61 66 83 134 84 73 83 85 68 56 57 59 59 53 45 42 41 36 32 32 32 32 28 26 24 18 16 14 12 10 5 3 359 355 351 345 342 339 338 337 337 337 336 338 343 347 350
129 133 140 139 131 124 117 103 96 90 87 74 64 60 58 61 49 41 20 11 27 50 78 144 143 127 141 121 112 116 105 106 124 129 136 149 186 159 103 91 115 144 107 75 87 94 76 67 70 55 48 45 39 35 35 29 23 24 22 21 20 18 17 13 10 8 6 4 0 358 354 349 345 340 337 335 334 334 334 336 335 335 340 346 350
126 127 133 135 134 126 121 106 91 81 84 71 61 54 45 40 22 18 16 13 22 48 56 96 110 106 120 111 98 115 110 98 142 162 147 141 150 158 125 107 119 127 108 96 89 84 71 66 58 39 30 28 31 29 30 24 17 18 14 13 14 12 12 10 7 4 3 1 358 355 351 345 341 336 333 331 331 332 332 333 334 333 338 344 350
122 125 131 134 134 124 119 108 88 74 83 78 60 46 29 23 14 8 7 14 28 59 65 88 110 109 109 106 99 100 107 123 185 197 196 175 154 170 162 131 126 111 103 127 113 74 54 51 42 34 34 32 29 26 23 17 9 8 4 2 4 3 4 3 1 360 357 357 354 352 350 346 342 336 332 330 328 330 330 331 333 333 336 342 350
133 130 131 134 134 124 112 100 93 86 90 86 68 45 19 8 8 13 9 10 24 49 89 116 112 114 118 116 107 92 126 216 214 193 212 255 207 155 149 136 115 95 102 130 156 75 41 44 45 37 45 60 49 35 23 10 358 355 354 349 349 350 352 354 353 352 350 350 348 346 346 344 343 339 334 331 329 329 330 331 333 333 334 339 349
149 138 131 130 129 121 115 109 112 107 98 91 84 57 12 10 8 14 17 16 26 46 68 87 91 115 129 112 74 58 76 238 259 264 327 283 230 171 149 147 71 73 112 141 180 71 33 45 52 46 55 65 54 37 21 3 353 351 351 346 341 340 343 345 346 345 346 346 344 341 340 340 340 339 335 332 329 329 330 331 333 334 334 337 348
157 148 133 127 129 132 127 118 117 106 95 105 101 80 12 12 9 8 20 32 46 60 62 65 91 114 111 82 23 24 352 313 337 2 33 33 215 186 159 161 50 37 167 180 197 28 21 43 45 41 47 43 35 29 17 5 358 358 356 349 344 341 340 342 343 343 344 343 343 341 339 339 338 337 334 331 328 328 329 331 333 334 335 337 345
150 149 139 133 138 148 147 128 114 95 109 131 109 67 23 23 31 22 23 31 36 54 62 51 81 114 109 89 358 37 356 313 337 8 40 53 171 166 158 176 53 51 215 219 228 309 352 13 24 24 26 23 21 16 7 2 359 356 351 345 348 351 350 351 351 347 343 342 344 344 342 340 338 336 333 330 327 325 326 329 332 334 336 337 342
147 152 159 161 144 148 164 147 124 109 117 109 53 32 37 37 38 33 30 28 24 37 56 44 56 110 132 135 96 36 231 284 332 350 26 38 81 136 145 160 58 83 151 210 262 272 309 341 1 5 3 9 14 9 360 359 1 358 351 343 347 355 1 4 3 359 350 345 345 345 344 340 338 335 332 330 328 325 324 325 329 333 336 338 340
163 168 174 177 160 154 161 147 136 137 123 74 38 46 84 73 45 38 36 30 28 37 44 46 76 103 120 136 158 191 188 227 351 338 340 11 41 105 137 87 333 292 269 257 263 255 295 338 339 341 340 348 359 3 3 4 3 359 353 345 345 353 3 5 4 5 358 350 345 342 340 338 336 334 331 330 328 327 325 324 327 330 334 339 339
174 174 172 173 168 165 158 146 158 161 141 97 58 63 111 101 55 33 26 28 37 38 36 40 46 38 29 293 283 204 172 167 175 177 329 342 15 59 66 26 4 316 328 318 261 239 351 349 329 324 330 332 339 348 357 1 359 355 349 342 340 347 355 356 357 1 359 353 348 344 342 339 337 334 331 330 328 327 327 325 327 328 332 339 339
177 171 167 170 168 171 170 159 166 172 163 140 72 131 139 124 89 55 56 42 40 36 34 34 23 8 360 2 10 198 200 308 209 173 131 307 322 338 345 348 3 19 15 15 348 266 355 350 324 322 326 317 322 336 344 348 349 349 344 336 334 341 347 349 352 357 357 356 354 351 350 347 344 340 334 332 330 328 328 327 328 330 331 338 339
176 169 170 174 168 171 171 156 146 158 163 140 127 151 144 129 141 120 96 50 29 48 50 34 18 7 359 3 27 49 63 47 115 153 106 89 304 308 325 333 342 350 358 9 1 328 341 338 325 332 326 306 310 323 324 332 339 342 341 333 330 337 340 343 348 351 352 352 352 353 355 355 353 349 343 338 335 333 333 331 330 330 329 334 338
178 177 181 174 170 174 166 154 151 163 162 152 156 165 160 152 171 154 143 217 219 97 61 38 13 355 354 0 20 31 48 60 83 107 85 81 312 295 315 331 328 320 327 340 335 329 337 331 324 330 330 314 309 311 314 326 332 334 338 335 330 334 338 342 345 345 345 346 346 347 351 356 357 355 352 348 344 340 338 337 334 331 328 332 339
176 185 186 172 178 184 164 165 184 186 173 173 177 182 179 178 195 198 195 206 174 157 182 9 351 348 354 9 7 3 25 37 42 77 72 59 34 296 299 307 300 298 307 319 317 313 311 317 320 320 322 322 307 307 319 329 331 329 333 334 332 333 339 344 341 337 337 339 341 340 342 349 354 357 357 354 354 349 343 342 341 338 332 331 339
178 189 188 174 183 185 173 178 183 175 174 186 186 186 195 196 196 195 197 199 179 181 230 259 349 360 352 344 340 324 289 301 338 322 185 52 35 295 289 295 298 295 298 298 303 307 300 300 308 303 305 313 309 311 322 328 329 327 324 326 329 333 341 343 337 332 331 333 336 335 335 338 345 354 359 357 357 353 347 347 348 348 342 335 340
186 191 189 187 195 192 183 182 176 174 180 189 195 197 203 200 197 198 201 202 187 204 259 261 348 343 319 310 335 333 264 269 319 245 216 262 311 300 297 305 313 320 321 305 299 312 304 296 303 296 298 309 311 314 323 327 327 324 320 321 322 330 342 341 334 331 330 329 330 329 329 330 333 346 359 0 358 355 349 350 352 354 352 345 345
192 193 189 195 204 198 189 188 186 189 194 197 199 187 179 188 192 180 197 218 215 242 267 279 300 305 297 275 288 341 307 304 314 224 236 278 276 260 299 328 327 337 336 315 311 318 312 314 316 306 308 311 308 316 326 329 332 335 335 331 326 333 343 341 336 333 331 329 328 324 322 323 323 333 352 0 358 355 351 352 355 356 356 353 349
193 193 191 198 201 200 199 202 203 201 206 208 200 191 192 204 208 198 204 230 248 259 262 279 291 284 268 253 244 249 284 304 307 233 245 260 250 252 306 340 333 335 331 316 317 313 310 319 314 310 320 316 302 320 331 329 334 343 344 338 333 339 344 341 338 335 332 331 329 325 321 319 317 323 341 355 356 353 351 353 358 360 359 358 353
195 192 197 203 200 203 204 206 213 208 203 198 188 197 218 217 219 225 218 222 261 270 265 274 278 267 260 258 248 248 262 283 284 237 235 239 248 285 293 263 247 310 325 321 320 305 310 321 313 316 334 329 311 321 331 333 337 341 341 339 336 341 344 340 337 336 334 335 336 335 331 325 317 318 331 345 351 350 348 350 357 2 1 360 357
202 191 195 203 199 200 201 204 216 213 203 197 192 204 221 216 220 236 222 221 256 258 261 268 263 280 287 256 243 251 245 245 248 238 260 266 251 250 260 255 243 230 269 303 305 288 307 325 323 321 334 337 329 324 325 334 342 341 340 341 341 341 343 339 338 340 340 341 343 344 347 341 328 322 326 336 344 344 343 346 353 360 1 1 360
199 188 190 200 196 193 194 203 217 214 205 202 200 205 215 217 223 240 240 242 254 244 252 260 250 275 290 258 255 256 237 253 255 241 267 275 249 246 250 251 254 249 233 240 284 292 305 325 332 327 330 338 341 334 328 334 341 341 340 341 341 340 339 338 341 345 344 343 346 353 358 354 341 333 329 332 338 338 336 339 346 354 359 0 360
194 193 198 203 202 198 196 204 213 210 205 209 212 209 214 224 223 234 248 252 254 248 248 255 251 276 285 259 258 259 248 273 267 253 266 257 245 252 252 254 258 257 256 243 248 291 302 318 327 332 336 338 341 339 335 334 333 334 337 336 335 335 335 338 342 346 345 343 347 352 354 350 344 340 334 331 334 333 330 332 338 345 353 358 359
194 198 205 206 206 206 203 207 209 206 205 213 221 215 214 225 223 231 248 248 251 254 252 253 256 276 281 255 248 264 269 275 269 263 266 253 248 252 252 262 261 255 261 251 239 277 299 313 323 331 339 336 333 332 330 328 327 331 337 334 333 333 333 337 342 347 348 346 347 349 349 349 345 341 336 332 332 332 327 324 328 336 344 352 356
203 206 209 206 206 207 205 210 213 208 210 216 224 218 214 223 224 230 245 246 248 252 252 254 255 265 273 256 250 261 262 264 266 271 273 261 255 256 260 267 264 256 257 251 247 271 297 318 327 330 333 330 328 330 330 329 332 335 336 332 331 330 326 328 333 337 342 347 351 352 350 348 343 339 339 338 338 339 333 322 320 326 335 345 350
209 210 209 204 208 210 208 214 217 216 219 219 220 218 219 227 226 228 240 248 253 252 246 252 257 261 263 256 255 259 256 260 264 269 279 273 259 256 263 265 262 260 257 255 255 264 289 312 325 326 328 328 329 336 338 333 329 327 325 325 328 328 323 323 325 324 331 343 349 348 344 341 339 342 348 350 349 345 340 331 322 320 326 337 345
208 210 209 208 215 216 211 216 222 222 224 220 217 220 226 231 229 228 238 247 257 255 246 248 255 259 259 254 256 260 260 261 262 262 264 266 265 261 263 262 260 266 264 258 259 267 282 301 316 319 321 323 325 332 335 331 327 324 321 320 322 324 324 326 327 324 329 340 343 340 338 339 342 347 349 346 344 340 338 338 333 324 320 326 337
212 212 210 210 216 218 215 221 225 224 221 218 218 222 229 238 240 240 242 245 251 255 250 250 254 258 259 257 256 259 261 261 263 262 252 248 254 252 258 264 259 261 262 257 264 275 277 288 304 312 315 319 323 328 330 329 327 324 320 320 324 329 335 342 344 340 335 336 337 338 342 346 346 342 338 337 338 338 338 337 333 327 318 314 326
217 216 212 208 213 217 218 220 221 221 222 221 220 223 231 239 243 247 247 245 250 253 252 251 252 258 262 261 260 259 263 265 265 266 254 243 244 247 256 259 249 245 252 265 281 284 281 288 302 314 319 323 327 325 323 324 323 323 326 331 338 344 346 347 345 342 339 337 339 345 351 349 340 335 335 338 341 342 341 336 331 326 315 304 313
216 220 215 212 217 219 218 219 220 223 229 231 229 230 236 240 241 242 241 243 249 253 254 256 256 259 261 260 259 257 256 257 259 264 260 252 256 264 261 256 252 252 264 291 302 300 302 306 313 319 321 325 325 320 325 333 332 336 346 347 344 342 340 337 336 338 341 340 342 346 345 337 336 339 344 349 351 348 345 339 332 326 313 301 303
214 221 223 223 224 219 214 219 222 224 231 238 238 237 238 241 244 245 243 242 244 247 253 257 256 259 265 267 268 273 275 267 259 259 264 266 265 258 250 247 254 272 282 289 297 303 310 315 316 317 317 320 320 321 334 347 346 350 355 350 341 335 335 337 336 336 336 336 337 337 333 334 341 349 353 355 356 352 349 347 339 324 309 302 303
209 217 229 234 225 215 214 221 226 224 229 236 237 236 239 241 243 246 249 248 245 247 254 256 259 275 294 297 280 279 291 287 271 260 262 265 257 240 231 233 244 264 274 277 286 296 304 308 310 313 316 319 324 331 343 351 351 348 346 345 342 337 336 336 336 335 334 333 333 331 334 342 349 355 357 358 358 352 349 352 348 332 317 317 317
197 196 217 224 212 209 213 221 227 222 220 227 232 234 237 240 240 240 247 253 251 253 259 263 279 303 305 295 277 263 278 282 265 252 252 250 245 239 237 242 256 270 273 274 281 291 300 306 310 317 321 322 328 336 343 347 346 339 337 339 339 338 337 334 333 336 337 334 332 333 340 349 351 353 358 358 360 2 358 353 350 343 339 337 329
235 207 203 186 176 198 205 211 218 219 217 222 227 231 237 240 238 236 241 246 246 251 265 278 293 299 274 281 291 280 275 274 263 255 252 244 242 246 249 256 268 275 274 277 283 288 293 299 304 312 316 316 321 328 333 334 330 329 333 338 336 334 336 333 331 336 342 341 335 333 341 350 348 349 356 358 2 9 8 2 359 351 343 338 329
245 243 238 228 220 225 203 191 201 211 219 223 224 235 251 246 233 229 233 235 237 251 275 284 288 288 268 275 290 292 283 284 280 268 255 246 250 258 261 265 273 279 280 283 288 290 291 292 295 299 300 304 310 315 319 322 325 327 329 330 329 329 332 331 325 330 342 345 335 328 335 348 351 349 355 0 1 0 359 357 355 348 341 335 327
251 251 250 244 236 235 229 192 185 199 215 225 227 239 259 247 228 222 224 227 231 242 263 270 271 301 312 292 290 290 284 283 285 271 255 253 254 250 248 256 265 274 282 287 290 294 295 295 295 297 298 303 309 313 317 320 322 323 320 319 322 324 324 322 314 317 333 342 335 328 333 349 356 353 356 359 355 352 351 347 346 345 340 336 330
257 259 257 248 237 232 227 209 183 184 199 213 222 231 239 229 216 211 209 207 204 204 214 243 270 294 317 318 302 290 273 266 271 264 250 249 248 242 245 256 263 271 289 298 299 301 305 301 295 298 309 315 318 320 321 317 314 316 317 318 320 320 319 318 313 315 328 341 340 332 332 347 359 356 352 350 347 347 348 346 353 359 354 351 351
251 252 252 250 243 232 229 227 209 198 200 206 214 220 219 213 207 206 205 200 201 212 228 249 269 283 292 296 293 282 260 254 255 246 237 240 244 244 245 250 257 275 300 306 303 307 315 309 297 304 322 327 321 316 312 308 308 312 316 316 317 317 316 316 317 320 330 342 345 338 331 346 358 353 344 343 343 344 345 348 1 8 5 6 8
240 237 239 244 241 231 233 247 238 221 214 209 208 210 212 214 211 206 206 206 209 222 237 252 267 276 281 285 286 275 258 247 241 237 239 245 244 241 247 255 268 289 307 313 314 317 322 322 316 319 325 323 314 308 306 307 307 310 312 309 310 313 315 319 325 331 340 345 348 349 340 344 352 348 341 343 343 343 350 360 4 4 3 1 1
238 234 232 238 244 240 237 241 241 233 224 216 214 215 216 217 213 205 205 208 214 229 241 252 263 268 274 277 269 258 248 236 235 240 244 249 250 251 260 268 274 287 303 320 330 326 325 326 321 319 316 312 310 310 314 316 316 316 312 305 308 316 321 324 326 334 345 351 356 357 344 340 346 346 342 344 347 349 358 6 4 0 355 349 351
247 245 244 244 250 242 228 228 232 230 226 221 219 217 213 209 204 199 204 205 208 224 233 243 254 255 259 257 250 250 242 226 232 244 245 252 259 260 264 272 279 287 293 293 283 285 308 313 315 317 313 311 318 325 326 327 326 322 312 302 306 319 326 322 317 325 339 351 358 352 342 338 343 344 341 343 350 357 3 1 357 355 352 353 360
257 259 258 254 254 239 213 208 215 217 217 217 217 215 210 203 194 191 199 197 186 195 211 218 233 241 237 229 226 228 225 222 240 259 270 276 275 273 274 275 274 279 287 284 280 289 297 300 308 313 310 319 335 332 330 339 342 341 337 331 330 332 329 321 318 323 333 349 355 349 344 341 343 342 338 338 345 355 356 351 350 354 2 7 4
286 283 273 264 262 249 220 206 206 208 206 204 206 209 202 192 186 185 193 190 176 181 202 217 232 248 249 235 219 212 223 242 259 275 287 287 280 278 280 275 265 268 285 298 307 311 308 310 316 314 316 339 345 331 337 359 14 34 49 42 20 359 345 337 335 333 332 350 357 353 349 343 340 339 338 335 335 340 342 344 348 355 4 1 351